Temp
-22 -22 -22 -22 -22 -22 -23 -23 -23 -23 -23 -23 -23 -24 -24 -24 -25 -25 -25 -25 -26 -26 -26 -26 -26 -25 -25 -25 -25 -25 -24 -24 -24 -24 -24 -23 -23 -23 -23 -23 -23 -22 -20 -19 -19 -19 -18 -18 -18 -18 -17 -17 -16 -16 -16 -16 -16 -16 -16 -15 -15 -14 -14
-22 -22 -22 -22 -23 -23 -23 -23 -23 -24 -24 -24 -24 -24 -25 -25 -26 -26 -27 -27 -27 -27 -28 -28 -27 -27 -27 -27 -27 -26 -26 -26 -25 -25 -25 -24 -24 -24 -24 -24 -24 -23 -22 -20 -20 -19 -19 -19 -19 -18 -18 -17 -17 -17 -16 -16 -16 -16 -16 -16 -15 -15 -15
-23 -23 -23 -23 -23 -23 -23 -24 -24 -24 -24 -25 -25 -25 -25 -26 -27 -27 -28 -28 -28 -28 -29 -29 -28 -28 -28 -28 -28 -27 -27 -27 -27 -26 -26 -25 -25 -25 -25 -25 -25 -25 -23 -22 -21 -20 -20 -19 -19 -19 -18 -18 -18 -17 -17 -16 -16 -16 -16 -16 -16 -15 -15
-23 -23 -23 -23 -24 -24 -24 -24 -24 -25 -25 -25 -26 -26 -27 -27 -28 -28 -29 -29 -29 -29 -29 -29 -29 -29 -29 -29 -29 -28 -28 -28 -28 -28 -27 -27 -26 -26 -25 -25 -25 -25 -25 -24 -23 -21 -21 -20 -20 -19 -19 -19 -18 -18 -17 -17 -16 -16 -16 -16 -16 -16 -15
-23 -23 -24 -24 -24 -24 -24 -25 -25 -25 -26 -26 -27 -27 -28 -29 -29 -29 -29 -29 -29 -29 -29 -29 -29 -29 -29 -29 -29 -29 -28 -28 -28 -28 -28 -28 -28 -27 -27 -26 -26 -26 -26 -25 -24 -23 -22 -22 -21 -20 -20 -20 -19 -19 -18 -18 -17 -17 -16 -16 -16 -16 -16
-24 -24 -24 -24 -24 -25 -25 -25 -26 -26 -26 -27 -28 -28 -29 -29 -30 -30 -30 -30 -30 -30 -30 -30 -30 -30 -30 -30 -29 -29 -29 -29 -29 -29 -29 -29 -28 -28 -28 -27 -27 -27 -27 -26 -25 -24 -23 -23 -22 -22 -21 -20 -20 -20 -19 -18 -18 -17 -17 -17 -17 -16 -16
-24 -24 -24 -25 -25 -25 -25 -26 -26 -27 -27 -28 -29 -29 -30 -30 -30 -30 -30 -30 -30 -30 -30 -30 -30 -30 -30 -30 -30 -30 -29 -30 -30 -29 -29 -29 -29 -29 -29 -28 -28 -28 -27 -27 -26 -25 -25 -24 -23 -23 -22 -21 -21 -21 -20 -19 -19 -18 -18 -17 -17 -17 -17
-24 -25 -25 -25 -25 -26 -26 -26 -27 -27 -28 -29 -29 -30 -30 -31 -31 -31 -30 -30 -30 -30 -30 -30 -30 -30 -30 -30 -30 -30 -30 -30 -30 -30 -30 -30 -30 -30 -29 -29 -29 -28 -28 -28 -27 -26 -26 -25 -24 -24 -23 -22 -22 -22 -21 -21 -20 -19 -18 -18 -18 -18 -18
-25 -25 -25 -25 -26 -26 -26 -27 -27 -28 -28 -29 -30 -30 -31 -31 -31 -31 -30 -30 -30 -30 -30 -30 -30 -30 -30 -30 -31 -31 -31 -31 -31 -31 -31 -30 -30 -30 -30 -30 -29 -29 -29 -28 -28 -27 -27 -26 -26 -25 -24 -24 -23 -23 -22 -22 -22 -20 -19 -19 -19 -18 -18
-25 -25 -26 -26 -26 -26 -27 -27 -28 -28 -29 -30 -31 -31 -31 -31 -31 -31 -31 -31 -30 -30 -30 -30 -30 -30 -30 -30 -30 -30 -31 -31 -31 -31 -31 -31 -31 -31 -30 -30 -30 -30 -29 -29 -28 -28 -27 -27 -26 -26 -25 -25 -24 -24 -23 -23 -22 -21 -21 -21 -20 -18 -18
-25 -26 -26 -26 -26 -27 -27 -27 -28 -29 -29 -30 -31 -32 -32 -32 -32 -32 -32 -31 -31 -30 -30 -30 -30 -30 -30 -30 -30 -30 -30 -30 -30 -30 -31 -31 -31 -31 -31 -31 -31 -30 -30 -30 -29 -29 -28 -28 -27 -26 -26 -26 -25 -25 -24 -24 -23 -23 -22 -21 -21 -19 -19
-26 -26 -26 -26 -27 -27 -27 -28 -28 -29 -30 -31 -31 -32 -32 -33 -33 -32 -32 -32 -31 -31 -31 -31 -31 -31 -31 -31 -31 -31 -31 -31 -30 -30 -30 -31 -31 -31 -31 -31 -31 -31 -30 -30 -30 -30 -29 -29 -28 -27 -27 -26 -26 -25 -25 -24 -24 -24 -23 -22 -22 -21 -20
-26 -26 -27 -27 -27 -27 -27 -28 -29 -29 -30 -31 -31 -32 -32 -33 -33 -33 -32 -32 -32 -32 -31 -31 -31 -31 -31 -31 -31 -31 -31 -31 -31 -31 -31 -31 -31 -31 -31 -31 -31 -31 -31 -31 -31 -30 -30 -29 -29 -28 -28 -27 -27 -27 -26 -25 -25 -24 -24 -23 -22 -22 -21
-26 -26 -27 -27 -27 -27 -28 -28 -29 -30 -30 -31 -32 -32 -33 -33 -33 -32 -32 -32 -32 -32 -32 -31 -31 -31 -31 -31 -31 -31 -31 -31 -31 -31 -31 -31 -31 -31 -31 -30 -30 -30 -31 -31 -31 -31 -30 -29 -29 -29 -28 -28 -28 -28 -27 -26 -25 -25 -25 -24 -23 -23 -22
-26 -27 -27 -27 -27 -27 -28 -29 -30 -30 -31 -31 -32 -32 -33 -33 -32 -32 -32 -32 -32 -32 -32 -32 -32 -32 -31 -31 -31 -31 -31 -32 -32 -32 -31 -31 -31 -31 -31 -30 -30 -30 -30 -30 -30 -30 -30 -30 -29 -29 -29 -28 -28 -28 -27 -27 -27 -27 -27 -26 -24 -24 -23
-27 -27 -27 -27 -27 -28 -28 -29 -30 -30 -31 -32 -32 -32 -32 -32 -32 -32 -32 -32 -32 -32 -32 -32 -32 -32 -32 -31 -31 -31 -32 -32 -32 -32 -32 -31 -31 -31 -30 -30 -30 -30 -30 -30 -30 -29 -29 -29 -29 -29 -29 -28 -28 -28 -28 -28 -28 -28 -27 -26 -25 -24 -23
-27 -27 -27 -27 -28 -28 -28 -29 -30 -30 -31 -32 -32 -32 -32 -32 -32 -32 -32 -32 -32 -32 -32 -32 -32 -32 -32 -32 -31 -31 -32 -32 -32 -32 -32 -32 -31 -31 -31 -30 -30 -30 -30 -29 -29 -29 -29 -29 -29 -29 -29 -29 -29 -29 -28 -28 -28 -28 -28 -27 -26 -25 -24
-27 -27 -27 -28 -28 -28 -28 -29 -30 -31 -31 -32 -32 -33 -33 -33 -33 -33 -32 -32 -32 -32 -32 -32 -32 -32 -32 -32 -31 -32 -32 -32 -32 -32 -32 -31 -31 -31 -31 -31 -30 -30 -29 -29 -29 -29 -29 -29 -29 -29 -29 -29 -29 -29 -29 -29 -29 -29 -28 -29 -28 -26 -25
-27 -27 -27 -28 -28 -28 -29 -29 -30 -31 -32 -32 -33 -33 -33 -34 -34 -33 -33 -33 -32 -32 -32 -31 -31 -32 -32 -32 -32 -32 -32 -32 -32 -32 -31 -31 -31 -31 -31 -30 -30 -30 -30 -29 -29 -29 -28 -29 -29 -29 -29 -29 -29 -29 -29 -29 -29 -29 -29 -29 -29 -28 -26
-27 -27 -27 -28 -28 -29 -29 -29 -30 -31 -32 -32 -33 -33 -33 -34 -34 -34 -34 -33 -33 -32 -32 -31 -31 -31 -32 -32 -32 -32 -32 -32 -32 -31 -31 -31 -31 -31 -30 -30 -30 -30 -30 -30 -29 -29 -28 -28 -29 -29 -29 -29 -29 -29 -29 -29 -29 -29 -29 -29 -29 -28 -28
-28 -27 -27 -28 -28 -29 -29 -30 -30 -31 -32 -32 -33 -33 -33 -34 -34 -34 -34 -34 -33 -32 -32 -31 -31 -31 -31 -31 -32 -32 -32 -32 -31 -31 -31 -31 -31 -30 -30 -30 -30 -30 -30 -29 -29 -29 -28 -28 -28 -29 -29 -29 -29 -29 -29 -29 -29 -29 -29 -29 -29 -29 -29
-28 -28 -27 -28 -28 -29 -29 -29 -30 -31 -32 -32 -32 -33 -33 -34 -34 -35 -35 -34 -33 -32 -32 -32 -31 -31 -31 -31 -31 -32 -32 -32 -32 -31 -31 -31 -31 -30 -30 -30 -30 -30 -29 -29 -29 -29 -28 -28 -28 -28 -29 -29 -29 -29 -29 -29 -29 -29 -29 -29 -29 -29 -29
-28 -28 -27 -28 -28 -28 -29 -29 -30 -31 -32 -32 -32 -32 -33 -33 -34 -34 -34 -34 -33 -33 -32 -32 -31 -31 -31 -31 -32 -32 -32 -31 -31 -31 -31 -31 -31 -30 -30 -30 -30 -30 -29 -29 -29 -29 -28 -28 -28 -28 -28 -29 -28 -28 -28 -28 -28 -28 -28 -29 -29 -29 -29
-28 -28 -27 -27 -28 -28 -29 -29 -30 -31 -32 -32 -32 -32 -33 -33 -33 -34 -34 -33 -33 -33 -33 -32 -31 -31 -32 -32 -32 -31 -31 -31 -30 -30 -30 -30 -30 -30 -30 -30 -30 -30 -29 -29 -29 -29 -29 -28 -28 -28 -28 -28 -28 -28 -28 -28 -28 -28 -29 -29 -29 -29 -29
-28 -28 -28 -28 -28 -28 -28 -29 -30 -30 -32 -32 -32 -32 -32 -32 -33 -33 -33 -33 -33 -33 -32 -32 -32 -32 -32 -32 -31 -31 -30 -30 -30 -30 -30 -30 -30 -30 -30 -30 -30 -30 -29 -29 -29 -29 -29 -29 -28 -28 -28 -28 -28 -28 -28 -28 -28 -28 -28 -29 -29 -29 -29
-28 -28 -28 -28 -28 -28 -28 -29 -29 -30 -31 -32 -32 -32 -32 -32 -32 -32 -32 -32 -32 -32 -32 -32 -32 -32 -32 -31 -31 -30 -30 -30 -30 -30 -30 -30 -30 -30 -30 -29 -29 -29 -29 -29 -29 -29 -29 -29 -28 -28 -28 -28 -28 -28 -27 -28 -28 -28 -28 -28 -29 -29 -29
-28 -28 -28 -28 -28 -28 -28 -29 -29 -30 -31 -31 -31 -31 -31 -32 -32 -32 -32 -31 -31 -31 -31 -31 -31 -31 -31 -31 -30 -30 -30 -29 -30 -29 -29 -30 -30 -30 -29 -29 -29 -29 -29 -29 -29 -29 -29 -28 -28 -28 -28 -27 -27 -27 -27 -27 -28 -28 -28 -28 -28 -28 -29
-28 -29 -28 -28 -28 -28 -28 -28 -29 -30 -30 -31 -31 -31 -31 -31 -31 -31 -31 -31 -31 -31 -31 -31 -31 -31 -30 -30 -30 -29 -29 -29 -29 -29 -29 -30 -30 -29 -29 -29 -29 -29 -29 -29 -29 -29 -29 -28 -28 -28 -27 -27 -27 -27 -27 -27 -27 -28 -28 -28 -28 -28 -28
-28 -28 -28 -28 -28 -28 -28 -28 -29 -30 -30 -31 -31 -31 -31 -31 -31 -32 -32 -32 -31 -31 -31 -31 -31 -31 -30 -30 -29 -29 -29 -29 -29 -29 -30 -30 -30 -29 -29 -29 -29 -29 -29 -29 -29 -29 -29 -28 -28 -27 -27 -27 -27 -27 -27 -27 -27 -27 -27 -28 -28 -28 -28
-29 -29 -29 -29 -29 -29 -29 -29 -29 -30 -30 -31 -31 -32 -32 -32 -32 -32 -32 -32 -32 -31 -31 -31 -31 -31 -30 -30 -29 -29 -29 -29 -29 -29 -29 -30 -30 -29 -28 -29 -29 -29 -29 -29 -29 -29 -28 -28 -28 -27 -27 -27 -27 -27 -27 -27 -27 -27 -27 -28 -28 -28 -28
-29 -30 -30 -30 -30 -30 -30 -30 -30 -30 -30 -31 -31 -32 -32 -32 -32 -32 -33 -32 -32 -32 -32 -31 -31 -31 -31 -30 -30 -30 -29 -29 -29 -29 -29 -30 -29 -29 -29 -29 -29 -29 -29 -29 -29 -29 -28 -28 -28 -28 -27 -27 -27 -27 -27 -27 -27 -27 -27 -27 -28 -28 -28
-29 -30 -30 -30 -30 -30 -30 -30 -30 -30 -30 -31 -31 -31 -31 -31 -31 -32 -32 -32 -32 -32 -32 -32 -31 -31 -31 -30 -30 -30 -29 -29 -29 -29 -29 -29 -29 -29 -29 -29 -29 -29 -29 -29 -29 -28 -28 -28 -28 -28 -28 -28 -27 -27 -27 -28 -28 -27 -27 -28 -28 -28 -28
-29 -30 -30 -30 -30 -31 -30 -30 -31 -31 -31 -31 -31 -31 -31 -31 -31 -32 -32 -32 -32 -32 -32 -32 -31 -31 -31 -30 -30 -30 -29 -29 -29 -29 -29 -29 -29 -29 -29 -29 -29 -29 -29 -28 -28 -28 -28 -28 -28 -27 -27 -28 -28 -28 -28 -28 -28 -28 -28 -28 -28 -28 -28
-29 -29 -29 -30 -30 -30 -30 -30 -31 -31 -31 -31 -31 -31 -31 -31 -32 -32 -32 -32 -32 -32 -31 -31 -31 -31 -31 -30 -30 -30 -29 -29 -29 -29 -29 -29 -29 -29 -29 -29 -29 -29 -28 -28 -28 -28 -28 -28 -28 -27 -27 -28 -28 -28 -28 -28 -28 -28 -28 -28 -28 -28 -28
-28 -29 -29 -29 -29 -29 -30 -30 -30 -31 -31 -31 -31 -31 -31 -31 -31 -32 -32 -32 -32 -32 -32 -31 -31 -31 -31 -31 -30 -30 -30 -29 -29 -29 -29 -29 -29 -29 -29 -29 -29 -29 -28 -28 -28 -28 -28 -28 -28 -28 -27 -27 -27 -28 -28 -28 -28 -28 -28 -28 -28 -28 -28
-28 -28 -29 -29 -29 -29 -29 -30 -30 -30 -31 -31 -31 -31 -31 -31 -31 -31 -32 -32 -32 -32 -32 -32 -32 -31 -31 -31 -31 -30 -30 -30 -29 -29 -29 -29 -29 -29 -29 -29 -29 -29 -28 -28 -28 -28 -28 -28 -28 -28 -28 -27 -27 -27 -28 -28 -28 -28 -28 -28 -28 -28 -28
Height
2904 2902 2899 2897 2894 2892 2888 2885 2882 2879 2875 2873 2870 2867 2863 2860 2857 2853 2851 2848 2846 2845 2843 2841 2839 2839 2839 2838 2836 2837 2837 2837 2837 2837 2837 2838 2838 2839 2839 2838 2836 2832 2834 2839 2842 2846 2851 2855 2857 2858 2862 2864 2865 2867 2869 2869 2871 2873 2875 2876 2878 2880 2883
2899 2896 2894 2891 2888 2885 2882 2879 2876 2872 2868 2865 2862 2859 2855 2851 2848 2844 2841 2839 2837 2836 2834 2832 2830 2830 2830 2829 2827 2827 2827 2827 2828 2828 2828 2829 2828 2829 2830 2830 2828 2826 2825 2827 2833 2836 2839 2843 2847 2849 2852 2854 2855 2857 2859 2860 2863 2865 2866 2868 2870 2872 2875
2894 2891 2888 2886 2883 2880 2876 2873 2869 2866 2862 2858 2854 2851 2847 2843 2839 2836 2833 2831 2829 2827 2826 2824 2822 2822 2822 2821 2819 2819 2819 2818 2818 2818 2818 2819 2820 2819 2821 2822 2820 2818 2817 2817 2821 2826 2829 2831 2835 2839 2843 2844 2845 2848 2848 2850 2853 2855 2857 2860 2861 2863 2866
2888 2886 2883 2880 2877 2874 2870 2866 2863 2859 2856 2852 2847 2843 2839 2835 2832 2828 2825 2823 2821 2820 2819 2817 2815 2815 2814 2813 2811 2811 2812 2811 2810 2810 2809 2810 2811 2810 2811 2812 2812 2811 2810 2809 2810 2816 2820 2821 2823 2829 2833 2834 2836 2838 2839 2840 2844 2846 2848 2851 2853 2854 2857
2882 2880 2877 2874 2871 2867 2863 2859 2856 2852 2848 2844 2840 2835 2831 2827 2824 2821 2819 2817 2815 2813 2811 2810 2808 2808 2807 2805 2804 2804 2804 2804 2803 2803 2802 2802 2802 2802 2802 2803 2803 2803 2803 2801 2802 2806 2809 2811 2812 2817 2823 2825 2826 2828 2830 2831 2834 2836 2839 2841 2843 2846 2849
2876 2873 2870 2867 2864 2860 2857 2853 2849 2845 2841 2837 2832 2828 2824 2820 2817 2815 2813 2811 2809 2807 2805 2803 2802 2801 2800 2798 2797 2797 2797 2796 2795 2795 2794 2794 2794 2795 2794 2794 2795 2795 2795 2794 2795 2797 2799 2802 2804 2807 2812 2816 2817 2818 2820 2822 2824 2827 2830 2832 2834 2837 2840
2870 2867 2864 2860 2857 2853 2850 2846 2842 2838 2834 2829 2825 2820 2816 2813 2811 2808 2806 2804 2803 2801 2799 2797 2795 2794 2793 2792 2791 2790 2790 2789 2788 2787 2787 2787 2787 2787 2787 2786 2787 2788 2787 2787 2788 2789 2791 2793 2795 2798 2802 2806 2808 2808 2810 2814 2815 2817 2821 2823 2825 2827 2831
2863 2861 2857 2854 2851 2847 2843 2839 2835 2831 2826 2822 2818 2813 2810 2807 2805 2802 2800 2798 2797 2795 2793 2791 2789 2788 2787 2786 2784 2784 2783 2782 2781 2780 2780 2780 2780 2780 2779 2779 2779 2780 2780 2780 2780 2782 2783 2785 2786 2789 2793 2797 2798 2799 2802 2806 2806 2807 2811 2813 2815 2818 2821
2857 2854 2851 2848 2844 2841 2837 2833 2829 2825 2820 2815 2811 2807 2803 2801 2798 2796 2794 2792 2790 2789 2787 2785 2783 2782 2781 2780 2779 2778 2777 2776 2776 2774 2773 2774 2774 2773 2772 2772 2772 2772 2773 2773 2773 2775 2777 2777 2777 2781 2785 2787 2789 2791 2794 2797 2797 2798 2801 2803 2804 2808 2812
2851 2848 2845 2842 2838 2835 2831 2827 2823 2819 2814 2809 2804 2800 2797 2794 2791 2789 2786 2784 2783 2781 2780 2779 2777 2776 2775 2774 2773 2773 2772 2771 2771 2769 2768 2768 2768 2767 2767 2766 2765 2766 2766 2767 2767 2768 2770 2769 2770 2773 2776 2778 2781 2783 2785 2787 2788 2790 2792 2792 2793 2798 2803
2846 2843 2839 2836 2832 2829 2825 2821 2818 2813 2808 2804 2799 2796 2792 2788 2785 2782 2779 2777 2775 2775 2774 2773 2771 2770 2768 2767 2766 2765 2765 2764 2764 2764 2763 2763 2762 2762 2761 2761 2760 2760 2761 2761 2760 2761 2763 2762 2763 2767 2769 2771 2773 2775 2776 2778 2780 2781 2783 2784 2784 2788 2793
2840 2837 2834 2830 2827 2823 2819 2816 2812 2807 2802 2798 2794 2792 2788 2784 2780 2776 2773 2772 2770 2769 2768 2767 2765 2764 2762 2761 2760 2759 2758 2758 2757 2758 2758 2757 2757 2757 2757 2757 2756 2755 2756 2756 2755 2755 2756 2756 2757 2760 2761 2764 2766 2767 2768 2769 2771 2772 2774 2776 2777 2779 2784
2834 2831 2828 2825 2821 2817 2813 2810 2806 2801 2797 2792 2789 2787 2784 2780 2775 2771 2769 2767 2766 2765 2763 2761 2760 2758 2757 2756 2755 2754 2753 2752 2752 2752 2752 2752 2752 2752 2752 2753 2753 2753 2752 2751 2750 2749 2749 2751 2753 2753 2754 2758 2760 2760 2760 2761 2762 2765 2766 2766 2769 2771 2775
2828 2826 2823 2819 2815 2811 2808 2804 2800 2795 2791 2787 2784 2782 2779 2774 2770 2767 2765 2763 2761 2760 2758 2756 2755 2753 2752 2751 2750 2749 2749 2748 2748 2748 2748 2748 2747 2747 2748 2748 2748 2749 2749 2748 2746 2744 2743 2746 2747 2747 2748 2752 2753 2752 2753 2753 2755 2756 2757 2758 2760 2763 2766
2823 2820 2817 2813 2809 2805 2802 2799 2795 2789 2785 2781 2779 2776 2773 2769 2765 2763 2761 2759 2757 2755 2753 2751 2750 2748 2746 2746 2745 2745 2745 2744 2744 2743 2743 2743 2742 2742 2742 2742 2742 2743 2743 2743 2742 2740 2739 2740 2741 2741 2742 2745 2747 2746 2747 2748 2748 2748 2749 2750 2751 2753 2756
2817 2814 2811 2807 2803 2799 2796 2794 2790 2785 2780 2776 2774 2771 2767 2763 2760 2758 2755 2753 2752 2750 2748 2747 2745 2743 2742 2741 2741 2741 2742 2741 2741 2740 2739 2738 2737 2737 2736 2736 2736 2737 2737 2737 2736 2736 2735 2734 2735 2736 2736 2738 2740 2740 2741 2742 2741 2741 2742 2742 2742 2744 2747
2811 2808 2805 2801 2798 2794 2790 2788 2785 2780 2775 2772 2769 2765 2761 2758 2755 2752 2749 2748 2747 2745 2743 2742 2740 2739 2738 2737 2737 2738 2738 2739 2739 2738 2736 2734 2733 2732 2731 2730 2730 2731 2731 2732 2732 2731 2731 2730 2730 2731 2731 2733 2734 2734 2736 2736 2733 2733 2735 2735 2734 2735 2738
2806 2803 2800 2796 2792 2788 2784 2782 2779 2775 2770 2767 2764 2760 2756 2753 2749 2746 2744 2742 2741 2740 2738 2737 2736 2735 2734 2733 2733 2734 2734 2736 2736 2735 2733 2731 2729 2728 2726 2725 2725 2725 2725 2726 2726 2726 2726 2726 2726 2725 2726 2727 2728 2730 2732 2729 2726 2727 2729 2728 2726 2727 2731
2800 2798 2795 2791 2787 2783 2779 2776 2774 2770 2766 2762 2759 2756 2753 2749 2745 2742 2739 2737 2735 2734 2733 2732 2732 2731 2731 2730 2730 2730 2731 2732 2732 2731 2729 2727 2725 2722 2720 2720 2720 2720 2719 2718 2718 2718 2719 2719 2719 2719 2718 2719 2720 2722 2725 2723 2720 2721 2722 2720 2719 2721 2722
2795 2792 2790 2787 2782 2779 2775 2771 2768 2766 2761 2758 2755 2752 2749 2745 2741 2738 2735 2733 2730 2729 2728 2728 2727 2727 2727 2727 2727 2727 2727 2727 2728 2727 2725 2722 2719 2716 2715 2715 2715 2714 2713 2712 2711 2712 2712 2712 2712 2712 2711 2711 2711 2713 2715 2716 2716 2715 2715 2714 2713 2714 2714
2791 2787 2785 2782 2778 2774 2771 2767 2764 2761 2757 2754 2751 2749 2746 2742 2738 2735 2732 2728 2726 2724 2723 2723 2723 2722 2723 2723 2723 2723 2723 2723 2723 2722 2719 2716 2713 2711 2710 2710 2708 2707 2707 2707 2707 2706 2706 2706 2706 2706 2705 2704 2704 2705 2706 2708 2710 2710 2710 2709 2706 2707 2707
2786 2783 2780 2778 2774 2771 2767 2764 2760 2756 2753 2750 2747 2745 2742 2739 2736 2733 2729 2724 2721 2721 2720 2719 2719 2718 2718 2718 2718 2718 2718 2718 2717 2715 2712 2709 2707 2705 2704 2702 2700 2701 2702 2703 2702 2701 2701 2700 2700 2700 2699 2698 2698 2699 2701 2702 2704 2705 2705 2703 2702 2702 2702
2781 2778 2775 2773 2770 2766 2763 2759 2756 2752 2748 2745 2743 2740 2738 2736 2733 2730 2726 2721 2718 2717 2716 2715 2715 2715 2715 2714 2714 2714 2713 2712 2710 2708 2706 2704 2701 2697 2695 2694 2693 2695 2697 2697 2697 2696 2695 2696 2696 2695 2695 2695 2694 2696 2697 2697 2698 2699 2699 2698 2698 2698 2697
2776 2773 2770 2767 2765 2762 2758 2755 2752 2748 2744 2740 2738 2736 2734 2732 2729 2726 2723 2719 2716 2714 2712 2711 2711 2711 2710 2710 2709 2708 2707 2706 2705 2703 2701 2698 2695 2691 2689 2688 2687 2689 2691 2691 2691 2691 2690 2691 2691 2691 2691 2691 2692 2692 2693 2693 2693 2694 2694 2694 2693 2693 2693
2771 2768 2764 2761 2759 2756 2754 2750 2747 2744 2740 2736 2734 2731 2729 2727 2725 2722 2719 2716 2714 2712 2710 2708 2707 2707 2706 2705 2705 2704 2703 2702 2701 2699 2696 2693 2690 2686 2684 2683 2682 2684 2685 2686 2686 2686 2686 2686 2686 2686 2686 2687 2688 2688 2689 2689 2689 2689 2689 2689 2689 2689 2688
2766 2763 2759 2756 2754 2751 2749 2746 2743 2740 2737 2733 2729 2727 2725 2722 2720 2718 2715 2712 2710 2708 2707 2705 2704 2703 2702 2701 2701 2700 2699 2698 2696 2694 2692 2688 2685 2682 2680 2678 2678 2679 2680 2681 2682 2682 2682 2682 2682 2682 2682 2682 2683 2683 2684 2684 2684 2684 2685 2685 2684 2684 2683
2761 2758 2754 2751 2749 2747 2745 2742 2738 2735 2732 2728 2725 2722 2720 2718 2715 2713 2710 2708 2706 2704 2703 2701 2700 2699 2698 2697 2697 2696 2694 2693 2691 2689 2687 2684 2680 2677 2675 2673 2673 2675 2676 2677 2678 2678 2678 2678 2678 2677 2677 2677 2678 2679 2680 2680 2680 2680 2680 2681 2681 2679 2678
2757 2754 2750 2746 2743 2741 2738 2736 2733 2730 2727 2724 2720 2717 2715 2712 2710 2707 2705 2703 2701 2700 2698 2697 2696 2695 2694 2693 2693 2692 2690 2689 2687 2685 2683 2679 2675 2671 2669 2667 2668 2670 2672 2673 2674 2675 2675 2675 2674 2674 2674 2674 2674 2675 2676 2677 2676 2676 2676 2677 2677 2676 2675
2752 2749 2745 2741 2738 2735 2732 2730 2728 2726 2723 2719 2715 2713 2710 2707 2705 2703 2700 2699 2697 2696 2695 2693 2692 2691 2690 2689 2688 2688 2686 2685 2684 2681 2679 2675 2671 2666 2664 2663 2665 2667 2668 2670 2671 2672 2672 2672 2671 2670 2670 2670 2670 2671 2673 2674 2673 2673 2673 2673 2673 2673 2673
2750 2745 2741 2737 2734 2731 2729 2726 2724 2722 2719 2716 2713 2710 2707 2705 2702 2700 2698 2695 2694 2693 2691 2690 2688 2687 2686 2685 2684 2684 2683 2681 2680 2677 2675 2672 2668 2663 2661 2661 2662 2664 2666 2667 2668 2668 2669 2669 2668 2667 2667 2667 2667 2668 2670 2671 2671 2671 2671 2671 2670 2671 2671
2750 2745 2740 2735 2731 2728 2726 2723 2721 2718 2716 2713 2710 2707 2704 2702 2700 2698 2695 2693 2691 2690 2688 2687 2685 2684 2683 2682 2681 2680 2679 2678 2676 2674 2671 2668 2665 2662 2660 2660 2661 2662 2663 2664 2665 2666 2667 2667 2665 2665 2665 2666 2666 2666 2668 2668 2668 2669 2669 2668 2668 2669 2669
2748 2743 2739 2734 2730 2726 2722 2720 2717 2714 2711 2709 2706 2703 2701 2698 2697 2695 2692 2690 2688 2687 2685 2684 2682 2681 2680 2679 2678 2677 2676 2674 2672 2670 2668 2666 2663 2660 2659 2659 2659 2660 2661 2662 2663 2664 2664 2664 2663 2663 2664 2664 2665 2665 2665 2666 2666 2666 2666 2666 2666 2667 2668
2744 2741 2737 2733 2729 2725 2720 2717 2714 2711 2708 2705 2702 2700 2697 2695 2693 2691 2689 2687 2685 2684 2683 2681 2680 2678 2677 2676 2675 2674 2673 2671 2670 2668 2666 2664 2661 2659 2657 2657 2658 2658 2659 2660 2661 2661 2662 2662 2662 2661 2662 2662 2663 2663 2663 2664 2664 2663 2663 2663 2664 2665 2666
2741 2737 2733 2730 2726 2723 2719 2715 2712 2709 2706 2702 2700 2697 2694 2692 2691 2689 2686 2684 2682 2681 2680 2678 2677 2675 2674 2673 2672 2671 2670 2669 2667 2665 2664 2662 2660 2658 2656 2656 2656 2656 2657 2658 2659 2659 2660 2660 2660 2660 2660 2660 2661 2661 2661 2661 2661 2661 2661 2661 2661 2662 2664
2737 2734 2730 2726 2722 2719 2716 2713 2709 2706 2703 2700 2696 2693 2691 2689 2688 2686 2684 2681 2679 2677 2676 2675 2673 2672 2671 2670 2669 2668 2667 2666 2665 2663 2662 2660 2658 2657 2655 2654 2654 2654 2655 2656 2656 2657 2658 2658 2658 2658 2658 2658 2659 2659 2659 2659 2659 2659 2659 2659 2659 2660 2662
2732 2729 2726 2722 2718 2715 2712 2709 2706 2703 2699 2696 2693 2690 2687 2685 2684 2682 2681 2679 2677 2675 2673 2672 2670 2669 2668 2667 2666 2665 2664 2664 2663 2661 2660 2658 2657 2655 2654 2653 2652 2652 2652 2653 2654 2655 2655 2656 2656 2656 2656 2657 2657 2657 2657 2657 2657 2657 2657 2657 2657 2658 2660
Wind_Speed
41 43 44 45 46 47 49 51 52 54 55 56 57 58 60 61 61 60 59 58 57 56 55 56 57 58 58 58 58 59 59 60 60 60 61 61 61 61 62 62 64 68 71 71 69 67 66 63 62 62 61 61 62 62 62 63 62 61 60 59 59 59 59
42 43 44 46 47 48 50 51 53 54 56 57 58 59 60 60 59 58 56 55 54 53 52 52 53 54 54 53 55 56 57 57 57 58 59 60 60 60 60 59 61 64 68 71 69 68 68 65 63 63 63 62 63 63 64 64 64 63 62 61 61 60 59
43 44 45 46 48 49 50 51 53 54 55 57 58 59 59 57 56 54 53 52 52 51 50 50 51 51 50 50 51 52 53 54 54 55 56 57 57 58 58 57 58 60 64 67 68 68 68 67 65 64 63 63 63 64 65 65 65 64 64 63 62 61 60
43 44 45 47 48 49 51 52 53 54 55 56 57 57 56 54 52 51 51 51 51 50 49 49 49 49 48 48 50 50 49 50 51 51 52 53 54 55 56 56 56 57 59 62 65 66 66 66 65 64 63 63 64 64 65 66 66 65 65 64 63 63 62
44 45 46 47 48 50 51 52 53 54 55 55 55 54 52 50 50 49 49 49 49 49 48 48 48 47 47 47 48 48 47 47 48 48 49 50 51 51 53 54 54 55 56 58 61 63 64 64 64 64 63 62 63 64 65 65 66 66 65 65 64 63 62
45 46 47 48 49 51 52 52 53 54 54 54 52 50 48 48 48 48 48 47 47 47 47 47 47 46 46 46 46 46 45 45 46 46 46 47 48 48 49 51 52 53 53 55 57 59 61 61 61 62 62 61 60 62 64 65 65 66 65 65 65 64 63
46 47 48 49 50 51 52 53 53 53 53 52 49 47 47 47 47 46 46 46 46 46 46 46 46 45 45 45 45 44 44 44 44 44 44 44 45 45 46 48 49 49 50 52 54 56 58 59 59 59 60 59 58 60 62 63 64 65 65 65 64 64 63
47 48 48 49 50 51 52 52 52 52 52 49 47 45 45 45 45 45 45 45 44 44 44 44 44 44 43 43 43 43 42 42 42 42 43 42 42 43 44 45 46 46 47 49 51 52 54 55 56 57 57 57 56 58 59 59 61 64 64 64 64 64 63
47 48 48 49 50 51 51 51 51 51 49 47 45 44 44 44 44 44 44 44 43 43 43 42 41 41 40 40 40 39 39 39 39 39 40 41 40 41 41 42 43 43 44 45 47 48 49 51 53 54 54 54 54 55 56 56 58 61 63 64 65 65 63
47 47 48 49 49 50 50 50 50 49 47 44 43 43 43 44 44 44 44 44 44 43 42 41 41 40 38 38 37 36 35 35 35 35 36 37 37 38 38 40 41 42 42 43 44 44 45 47 50 50 50 51 52 52 53 54 56 59 61 62 64 66 64
47 47 47 48 49 49 50 49 48 47 45 42 40 40 41 42 43 44 44 45 45 43 42 41 40 39 38 38 37 35 34 33 32 31 31 32 32 33 34 35 37 39 39 40 41 42 42 44 46 46 46 47 49 49 51 53 54 56 58 60 63 65 64
47 47 47 48 48 49 49 48 47 45 43 40 38 37 38 40 41 43 45 45 45 43 41 40 39 38 37 37 36 36 35 34 33 31 29 28 28 28 29 30 33 35 36 37 38 39 40 42 43 43 43 44 45 46 48 50 51 53 56 58 60 63 63
47 47 46 47 47 48 48 47 45 44 41 39 37 36 36 37 40 43 44 44 43 41 40 39 38 37 36 35 35 34 33 32 31 29 27 25 25 25 25 25 27 30 33 35 37 39 39 38 38 39 40 40 39 41 44 48 50 51 52 55 57 59 60
46 46 46 46 47 47 47 45 44 43 40 38 36 35 35 37 40 42 42 42 41 40 38 37 37 36 35 33 33 32 30 28 26 24 23 23 24 25 24 24 25 26 29 33 36 39 40 37 37 38 39 37 36 39 43 46 47 48 49 52 54 55 56
46 46 45 45 46 47 46 44 42 41 39 36 35 34 35 38 39 40 40 39 39 38 38 37 36 35 34 32 30 27 25 23 22 23 24 26 27 27 27 27 27 26 27 29 32 36 38 37 37 38 39 38 38 39 42 44 45 45 46 49 52 54 55
46 45 45 45 46 46 45 43 41 39 37 35 33 34 35 37 38 39 39 38 37 37 37 36 35 34 33 30 27 22 20 20 23 26 29 31 31 31 31 30 29 27 29 31 32 34 37 37 37 37 39 39 38 39 40 40 42 43 45 48 52 54 54
45 44 44 45 45 45 45 42 40 38 36 34 32 33 35 37 38 39 40 39 38 37 37 35 34 33 32 29 23 19 18 21 24 28 31 33 34 35 35 35 32 30 31 32 33 35 37 39 40 40 39 37 37 37 36 38 41 43 44 46 50 53 53
44 44 43 44 44 45 44 42 40 38 35 32 31 32 34 36 38 40 41 40 39 38 36 35 33 32 31 27 22 19 21 23 26 29 31 34 36 37 38 38 36 35 33 32 33 34 35 38 40 42 41 39 38 37 36 39 43 44 42 44 47 50 50
44 43 43 43 44 44 44 43 40 37 33 30 30 31 32 34 37 39 40 40 40 39 37 34 32 30 29 26 22 21 23 26 27 29 32 35 37 39 39 37 37 37 37 37 37 35 33 34 35 38 41 42 42 41 40 42 46 46 46 47 48 49 50
43 43 42 42 43 42 42 42 40 35 31 29 29 28 29 32 35 37 38 40 41 40 38 34 31 29 26 24 22 23 25 27 28 30 33 37 39 40 40 38 38 38 38 39 40 37 33 31 31 32 36 40 42 43 43 44 46 48 49 51 52 52 52
43 43 42 41 41 41 41 40 38 34 30 28 27 26 26 29 32 33 35 39 41 40 38 34 31 27 23 22 22 24 26 28 29 31 35 38 40 41 40 39 39 39 37 38 39 36 32 31 31 30 32 36 40 43 43 43 43 45 48 52 56 56 56
42 42 42 41 40 40 39 38 37 34 30 27 26 25 25 26 28 29 32 37 40 39 37 35 31 26 22 22 23 25 28 30 31 33 36 38 40 42 41 42 42 39 36 34 33 31 31 31 30 29 29 29 31 33 34 33 33 34 37 43 48 53 57
42 42 42 40 39 39 39 37 35 33 30 27 25 24 24 24 25 26 30 35 37 36 35 35 31 27 24 25 26 28 30 31 31 32 33 35 39 41 40 40 41 39 35 30 28 27 28 30 29 28 27 24 23 23 23 23 24 24 27 31 35 40 48
41 42 42 41 40 39 38 37 34 32 30 28 26 25 24 23 24 25 28 31 32 32 33 34 32 29 27 27 28 30 30 29 28 29 30 30 32 36 35 34 34 37 35 31 28 27 28 28 27 27 27 26 25 24 24 24 25 25 27 29 30 31 35
41 42 42 42 41 40 38 37 34 31 29 27 27 26 24 23 23 24 26 27 27 27 28 30 29 29 29 28 29 30 29 27 26 27 27 26 26 29 30 30 30 33 35 33 31 30 29 29 29 27 26 25 24 25 25 26 26 27 27 27 27 27 29
42 42 43 43 42 40 39 37 34 32 29 27 27 26 25 24 23 23 24 24 23 23 23 23 24 26 27 28 29 29 27 26 25 26 26 27 28 29 29 29 30 32 34 33 32 31 31 31 31 30 28 25 24 23 23 24 25 26 26 24 24 25 26
42 42 43 43 42 40 39 37 36 34 31 29 28 27 26 24 23 23 22 22 21 20 19 19 20 22 24 26 26 26 25 25 25 26 27 28 32 33 29 28 29 30 32 32 31 30 29 29 31 31 28 25 23 21 19 20 23 24 24 22 21 23 24
41 41 42 43 43 42 40 39 38 36 34 33 31 29 27 26 25 24 24 24 22 21 19 19 19 20 21 22 23 23 23 24 26 26 27 29 34 34 27 24 27 27 29 29 28 27 26 25 26 27 25 23 21 19 17 18 21 21 21 19 19 21 23
41 42 43 43 44 43 43 41 40 38 36 35 34 32 30 29 28 28 28 28 26 23 21 21 20 19 19 20 21 21 22 24 25 25 26 29 34 31 22 18 23 24 25 26 26 24 23 21 20 21 22 24 23 19 17 17 17 17 17 17 18 21 22
39 41 42 43 43 43 43 42 41 39 37 36 35 33 31 30 29 29 29 29 27 25 23 22 20 19 19 19 20 21 22 23 24 25 25 29 31 27 17 14 18 20 21 22 22 21 19 16 14 12 13 15 16 15 14 15 15 16 17 17 18 21 21
35 37 39 40 41 42 42 41 40 39 37 36 34 33 32 30 28 27 28 29 28 26 24 23 21 20 19 19 20 21 22 22 24 24 25 28 27 23 15 12 15 17 17 18 18 18 17 13 9 6 6 7 9 10 11 13 15 16 18 18 20 21 21
32 33 35 36 38 40 41 40 39 38 38 37 35 34 33 31 28 26 27 28 27 26 25 23 22 20 20 19 20 20 20 21 23 23 24 26 25 19 14 12 13 14 16 16 16 16 16 12 8 5 6 7 8 9 10 12 15 18 20 21 22 21 21
31 32 33 33 34 36 37 38 37 37 37 37 36 35 34 31 28 26 27 27 26 25 24 23 21 19 19 19 20 20 19 20 22 22 23 24 23 18 13 12 13 14 15 15 15 15 15 13 11 9 9 8 9 10 10 11 12 15 18 20 21 21 20
30 31 32 32 32 32 33 34 34 34 34 35 35 34 33 30 27 26 27 27 27 25 24 22 20 19 19 19 19 19 19 19 20 20 20 22 22 17 12 11 14 16 16 16 15 15 16 15 14 12 10 10 9 10 11 11 12 12 14 17 20 21 20
30 31 32 32 32 32 32 32 32 32 32 33 34 34 32 29 26 25 25 25 26 26 24 23 22 21 19 19 19 19 18 18 18 18 19 20 20 16 12 11 13 17 19 18 17 17 17 17 16 14 13 12 11 11 11 12 12 12 12 14 18 21 19
33 32 31 32 33 33 32 31 31 31 31 31 32 33 32 30 27 25 24 23 24 25 24 24 23 22 20 19 19 18 18 17 17 16 17 19 19 16 12 11 12 15 19 21 20 19 19 18 17 16 16 15 15 14 14 13 12 13 12 12 16 21 20
Wind_Direction
307 308 309 310 310 311 311 311 311 311 310 309 309 308 307 305 302 299 296 292 289 286 284 282 280 277 276 275 273 271 269 268 267 266 265 265 264 263 263 263 264 264 263 262 262 261 259 258 257 256 255 255 254 254 255 256 256 257 258 258 258 257 257
307 308 309 310 311 312 312 312 312 312 311 310 310 309 307 305 302 298 295 292 289 287 285 283 281 279 278 277 276 274 272 270 269 267 266 265 265 264 263 264 264 264 264 262 261 261 260 259 257 256 255 255 255 254 254 255 255 256 256 256 257 257 256
307 308 310 311 311 312 312 312 312 312 312 311 311 309 307 304 300 297 294 292 290 289 288 286 284 283 281 280 278 276 275 274 272 271 269 266 266 265 264 264 264 264 264 263 262 260 260 259 258 256 255 255 254 254 254 254 254 255 255 256 256 256 256
307 308 310 311 312 313 313 313 313 313 313 312 311 309 306 302 298 295 293 292 292 291 289 288 287 285 284 282 280 278 276 276 274 273 272 270 268 267 265 264 264 264 264 264 263 261 260 260 259 256 255 255 254 253 254 254 254 254 254 255 255 255 255
308 309 311 312 313 314 314 314 314 314 314 313 311 307 303 299 296 295 294 293 293 292 291 290 289 288 286 284 282 280 279 277 276 274 273 272 270 269 268 266 265 265 264 264 264 262 260 260 260 258 255 255 255 254 253 253 253 253 254 254 255 255 255
309 310 312 313 314 315 315 315 315 314 314 313 310 305 301 298 296 295 295 294 294 293 293 292 291 290 288 286 285 283 281 279 278 276 274 273 271 270 269 268 266 266 265 265 264 263 262 261 260 259 257 255 255 255 253 253 253 253 253 254 255 254 254
310 311 313 314 315 315 315 315 315 315 315 313 309 304 300 298 297 296 295 295 294 293 292 291 291 290 289 288 287 285 284 282 281 279 277 275 273 272 271 269 268 267 266 266 265 264 263 262 261 260 258 256 256 255 254 253 253 253 252 253 254 254 254
310 312 313 314 315 315 315 316 316 317 316 313 307 303 300 298 297 296 295 294 293 292 291 290 289 289 288 288 288 287 286 285 283 282 280 278 277 275 273 271 270 268 267 267 266 265 264 264 263 261 259 258 257 256 254 254 255 254 253 252 252 252 253
311 312 313 314 314 315 315 316 317 317 316 311 306 302 299 298 298 296 295 294 293 291 290 289 289 288 288 287 286 286 285 284 283 282 281 280 279 277 276 275 273 272 270 269 267 266 265 265 264 262 261 259 258 257 255 255 255 254 253 253 252 251 251
310 311 313 314 314 315 316 316 318 318 315 310 306 303 302 300 299 299 297 296 294 294 294 294 294 293 291 289 287 284 282 280 279 277 277 277 277 276 276 275 275 274 274 273 271 269 268 267 264 263 262 260 259 259 257 255 254 253 253 254 253 251 251
310 311 313 314 314 315 316 317 318 318 315 309 305 303 302 300 299 298 297 296 296 298 299 299 298 296 295 293 292 290 287 284 281 277 275 274 274 273 273 273 273 273 273 273 273 272 270 269 267 265 264 262 260 259 258 256 255 254 253 253 254 252 251
311 312 313 314 315 316 316 318 319 319 314 308 304 302 299 298 297 295 294 295 298 300 300 299 297 296 295 294 294 293 292 290 287 285 282 279 276 273 270 271 272 274 274 273 273 273 271 270 270 268 267 264 263 262 261 259 257 256 255 254 254 253 252
311 312 313 314 315 316 317 319 320 319 313 307 303 301 297 295 293 292 293 296 299 299 299 298 297 296 295 294 294 293 291 290 289 289 288 284 279 274 269 267 268 271 275 277 277 276 274 272 272 271 268 266 267 266 264 261 259 258 257 256 254 254 253
311 312 314 315 316 317 318 320 322 319 313 306 303 300 296 292 292 293 296 297 298 298 297 297 297 296 295 295 293 291 291 291 290 289 288 287 285 281 278 275 272 271 272 274 276 278 279 278 276 274 271 269 269 267 264 262 261 261 261 259 256 255 254
312 313 315 316 317 318 319 322 323 319 313 306 303 299 295 293 293 295 296 297 297 298 298 298 298 297 296 295 293 293 293 293 294 296 297 296 292 288 285 282 279 277 275 273 272 273 276 277 276 275 274 271 269 268 266 265 265 266 265 262 258 255 253
313 315 316 318 318 319 320 323 324 320 312 305 302 299 295 294 296 297 298 298 299 300 299 299 298 297 297 295 294 294 293 296 301 302 300 297 294 291 288 284 280 278 276 275 274 274 276 276 275 276 275 272 270 268 267 267 267 266 265 263 260 257 254
315 316 317 319 319 319 321 324 325 320 312 306 303 299 297 299 301 300 300 301 302 301 301 300 299 299 298 296 294 293 295 297 298 295 293 292 293 292 290 287 283 279 275 274 275 276 276 277 276 275 274 271 270 269 270 269 268 266 265 265 262 259 256
315 317 318 319 320 320 322 325 326 321 314 308 303 300 301 303 302 301 301 302 302 301 301 301 300 299 298 296 294 294 295 295 293 291 290 290 290 289 288 285 282 280 280 280 279 276 273 273 271 270 267 264 262 262 263 265 266 265 266 266 264 261 258
316 318 319 320 320 322 323 325 326 322 314 307 303 302 302 301 299 299 300 301 301 301 301 303 302 300 298 294 291 290 292 292 291 290 290 290 289 287 284 280 277 278 281 283 282 281 277 273 268 265 261 258 256 253 252 253 258 260 260 262 262 260 259
317 318 320 321 321 323 323 324 325 322 314 307 304 302 300 297 296 297 298 298 298 299 302 305 305 303 298 292 287 286 288 290 291 291 291 289 286 283 281 280 278 277 276 277 281 283 281 276 274 269 262 256 253 252 249 247 250 252 254 257 259 259 259
318 318 320 322 322 323 323 324 325 323 315 308 304 300 297 295 295 296 296 295 295 298 303 306 306 304 300 293 289 288 290 291 291 290 288 283 279 277 278 278 275 271 271 275 281 281 275 272 275 276 270 261 254 252 251 248 247 249 250 253 255 256 258
318 318 320 322 323 324 324 325 326 324 317 309 304 299 296 295 294 294 293 292 294 299 302 304 304 303 299 295 293 292 292 290 287 286 284 281 278 276 274 270 267 264 265 273 281 279 271 269 273 277 277 269 259 254 255 254 252 252 252 254 255 256 257
318 318 320 323 324 325 326 328 329 326 319 312 306 300 297 296 294 291 289 291 295 300 300 299 301 301 297 294 293 291 288 286 286 288 289 286 283 280 278 272 264 258 258 267 275 275 272 271 273 274 274 271 266 263 262 261 261 261 259 259 259 258 258
318 319 321 324 326 327 328 329 330 329 322 314 308 302 298 296 294 293 292 294 297 298 297 298 299 298 294 291 288 287 285 286 289 292 293 291 287 284 283 279 265 253 251 260 268 269 270 271 270 270 268 268 269 268 265 265 266 265 263 263 262 260 258
319 320 321 324 327 329 330 330 331 331 325 316 309 304 301 299 298 298 298 297 296 294 292 293 293 290 287 284 283 282 283 287 291 292 294 299 300 294 287 278 265 252 251 257 263 265 268 269 270 270 270 269 268 265 261 261 261 261 261 263 262 259 257
320 320 321 324 327 329 330 330 331 332 329 320 312 308 306 304 304 304 302 301 299 294 290 287 284 280 278 277 277 279 283 290 295 295 297 305 310 307 293 275 262 255 254 258 262 263 266 270 272 272 272 270 266 260 255 253 253 255 259 260 260 261 260
320 320 321 322 325 328 330 332 333 333 331 325 317 312 311 309 308 309 308 307 303 299 296 292 285 278 275 274 275 279 287 296 300 300 303 309 313 312 297 272 259 255 255 258 261 262 265 269 272 273 273 270 265 257 252 252 252 254 257 257 260 264 266
319 319 319 321 325 328 332 334 335 334 332 329 324 320 318 317 317 318 317 316 313 311 310 306 297 287 280 277 277 283 292 299 302 304 310 316 317 314 298 266 252 252 253 255 258 261 266 273 275 274 270 265 261 257 255 255 255 255 258 257 259 263 264
320 320 321 322 326 328 331 333 334 333 332 330 327 324 322 320 321 321 320 320 319 318 317 312 304 296 287 282 282 289 294 299 304 309 317 322 320 316 300 261 245 247 250 253 257 261 267 273 274 270 265 260 257 254 251 252 254 258 260 258 257 260 263
321 321 320 321 323 325 326 329 331 331 331 329 326 324 320 317 317 317 316 317 318 319 318 314 309 303 296 289 289 292 294 299 307 315 323 327 325 318 300 256 239 242 245 249 255 259 261 263 264 270 272 264 253 246 244 248 254 259 260 257 254 257 261
321 319 318 318 319 321 322 325 328 328 328 326 325 323 319 316 316 315 313 313 316 318 318 314 311 308 302 295 292 292 294 301 310 318 326 331 329 320 299 258 237 239 242 245 251 253 251 248 251 271 283 263 245 243 250 254 256 258 260 259 256 253 253
322 319 317 316 316 317 319 322 325 326 326 325 324 323 320 318 318 315 311 311 314 316 315 313 310 306 302 296 293 293 296 303 311 317 326 332 331 322 298 263 242 237 237 241 248 249 242 233 224 228 246 252 254 258 259 256 255 254 254 255 254 250 246
322 320 318 317 316 315 316 318 321 323 323 323 322 321 321 321 319 314 310 309 312 313 312 310 308 305 303 300 296 295 297 302 309 316 324 332 332 323 298 266 247 238 235 238 244 243 236 228 220 219 230 243 259 268 269 265 262 258 253 250 246 242 238
323 322 321 320 318 317 316 317 318 319 320 320 319 318 319 321 318 311 307 307 308 310 311 312 310 308 307 305 301 298 297 298 305 313 322 330 333 325 302 270 249 240 236 236 238 236 233 231 229 228 233 241 256 270 274 273 273 270 262 252 241 232 229
326 325 325 323 322 321 320 319 318 318 318 318 318 317 320 321 317 310 305 303 304 307 310 312 312 310 309 307 303 300 295 294 301 310 318 327 332 326 305 279 256 242 236 235 234 232 231 235 238 241 245 250 256 262 265 269 272 272 269 258 239 225 221
327 328 327 326 324 323 323 322 321 319 318 318 318 318 319 321 319 314 308 302 302 304 307 309 310 309 307 305 303 300 295 292 297 306 314 323 330 329 313 289 268 247 238 235 234 232 232 236 241 246 251 256 262 264 264 265 268 269 270 262 236 217 212